Location: Potterne
(51.3269°N, 2.0100°W)
Time: 07:52:24
(UTC+00:00)

Daily predictions for brighter satellites

Satellite Brightness Start Highest point End
(mag) Time Altitude Azimuth Time Altitude Azimuth Time Altitude Azimuth
CZ-4C R/B 2.3 17:08:48 10° SW 17:13:55 84° NW 17:20:12 10° NE
Meteor 2-5 Rocket 4.0 17:09:22 10° SSE 17:14:37 45° E 17:19:52 10° NNE
CZ-3B R/B 1.4 17:13:04 10° WNW 17:14:59 42° NNE 17:18:21 10° E
Cosmos 783 Rocket 4.5 17:14:46 10° NNW 17:20:02 79° ENE 17:25:17 10° SSE
CORIOLIS 4.1 17:16:17 10° SSE 17:21:41 74° ENE 17:27:04 10° NNW
Cosmos 2263 Rocket 2.4 17:16:26 10° S 17:21:58 56° ESE 17:27:31 10° NE
Cosmos 1455 3.8 17:22:06 10° NNE 17:24:24 15° ENE 17:26:42 10° ESE
Cosmos 968 Rocket 3.7 17:19:32 10° SSW 17:24:38 75° WNW 17:29:47 10° NNE
Envisat 4.0 17:20:04 10° S 17:25:01 53° W 17:30:01 10° NNW
Cosmos 2058 Rocket 3.9 17:22:34 10° N 17:26:31 29° ENE 17:30:27 10° SE
Cosmos 1354 Rocket 4.2 17:21:27 10° S 17:26:40 59° ESE 17:31:56 10° NNE
NOAA 11 4.2 17:21:39 10° SSE 17:27:08 74° ENE 17:32:39 10° NNW
USA-17 4.4 17:24:25 10° SSW 17:27:59 64° SE 17:30:58 10° NE
Cosmos 1300 2.7 17:25:12 10° N 17:29:01 64° ENE 17:32:48 10° SSE
NOSS 7 (H) 4.1 17:29:38 10° SW 17:32:52 75° SE 17:35:34 12° NE
Landsat 5 3.3 17:30:15 10° NNE 17:34:16 85° ESE 17:38:08 10° SSW
Cosmos 1486 Rocket 4.4 17:30:13 10° SW 17:35:26 67° WNW 17:40:40 10° NNE
ADEOS Rocket 4.0 17:32:15 10° N 17:38:09 46° WNW 17:43:34 10° SW
NOSS 3-1 (C) 4.3 17:32:37 10° NW 17:39:08 42° NNE 17:46:46 10° E
Lacrosse 5 1.9 17:34:08 10° WNW 17:39:12 68° NNE 17:44:15 10° ESE
CREW DRAGON DEMO-1 DEB 2.6 17:36:29 10° W 17:39:24 86° N 17:41:52 13° E
ARGOS 4.2 17:35:25 10° ESE 17:39:31 23° ENE 17:43:37 10° N
Cosmos 1943 3.8 17:35:43 10° NW 17:41:20 64° WSW 17:46:55 10° SSE
Cosmos 1726 Rocket 3.6 17:37:55 10° N 17:42:14 58° ENE 17:46:34 10° SSE
ERS-2 3.7 17:42:03 14° ENE 17:43:34 17° E 17:46:02 10° SE
Cosmos 1939 Rocket 2.9 17:42:06 10° SSE 17:46:11 63° ENE 17:50:14 10° N
Meteor 1-24 Rocket 3.6 17:43:24 10° S 17:48:40 64° E 17:53:55 10° NNE
COSMOS 2455 3.5 17:43:54 10° S 17:49:19 36° ESE 17:54:02 13° NE
Cosmos 1833 Rocket 4.1 17:48:20 10° NNW 17:52:21 19° NNE 17:54:41 15° ENE
Cosmos 2082 Rocket 3.9 17:50:35 10° N 17:53:54 15° NNE 17:55:56 13° NE
Cosmos 1315 Rocket 3.3 17:50:53 10° NNW 17:54:49 64° W 17:58:47 10° S
USA 229 DEB 4.4 17:49:25 10° NW 17:56:04 41° NNE 18:01:49 15° E
USA 229 4.4 17:49:32 10° NW 17:56:09 41° NNE 18:01:52 15° E
IRS-1C Rocket 4.1 17:52:01 10° SE 17:57:08 56° ENE 18:02:17 10° N
CZ-4 R/B 1.9 17:54:46 10° SE 17:58:33 37° ENE 18:02:17 10° N
Feng Yun 1-1 Rocket 4.1 17:54:24 10° SSE 17:59:50 76° ENE 18:05:24 10° NNW
COSMO-SKYMED 1 2.9 17:57:02 10° NNE 18:01:14 45° E 18:05:24 10° S
NOSS 3-4 (A) 4.2 17:55:31 10° WSW 18:01:18 47° NNW 18:07:06 12° NE
NOSS 3-4 (C) 4.2 17:55:40 10° WSW 18:01:26 47° NNW 18:07:15 12° NE
Cosmos 2279 Rocket 4.0 17:55:43 10° N 18:02:01 89° W 18:08:18 10° S
Cosmos 1503 Rocket 4.4 17:58:04 10° SW 18:03:25 68° WNW 18:08:49 10° NNE
Cosmos 2227 4.3 18:00:36 10° SW 18:06:15 78° WNW 18:11:59 10° NNE
Cosmos 2227 Rocket 4.1 18:05:23 10° W 18:09:45 22° NW 18:14:08 10° NNE
CZ-4B R/B 1.3 18:08:13 11° NNE 18:11:29 62° ESE 18:14:47 10° S
NOSS 3-1 (A) 4.4 18:05:07 10° NW 18:11:40 43° NNE 18:16:57 19° E
CZ-4 R/B 4.3 18:07:50 10° SSE 18:11:57 71° ENE 18:16:06 10° N
Okean-O 2.7 18:10:23 10° SE 18:14:40 50° ENE 18:18:59 10° N
Cosmos 923 Rocket 4.2 18:09:47 10° NNW 18:15:01 50° ENE 18:20:11 10° SE
CSL-04 DEB 4.4 18:10:56 10° NNE 18:15:13 84° ESE 18:19:21 10° SSW
CZ-2C R/B 3.1 18:10:53 10° SSE 18:16:13 79° ENE 18:21:51 10° NNW
Cosmos 1844 Rocket 3.3 18:11:23 10° S 18:16:29 36° ESE 18:19:24 22° ENE
Okean O Rocket 3.2 18:13:31 10° SSW 18:17:42 39° W 18:21:52 10° NNW
Cosmos 1689 Rocket 4.3 18:20:00 14° SSE 18:20:00 14° SSE 18:20:33 10° SSE
Cosmos 1626 3.9 18:15:02 10° SW 18:18:23 32° WNW 18:21:45 10° N
H-2A R/B 2.1 18:13:51 10° SE 18:18:41 52° ENE 18:23:40 10° N
ATLAS 2AS CENTAUR R/B 3.6 18:11:12 10° WSW 18:18:58 54° NNW 18:25:30 14° NE
SeaSat 1 4.4 18:15:16 10° NNE 18:19:05 23° NW 18:22:54 10° W
Aureole 2 Rocket 3.0 18:17:04 10° S 18:19:28 31° ESE 18:19:28 31° ESE
Cosmos 158 Rocket 4.0 18:15:11 10° NNW 18:20:27 59° ENE 18:25:46 10° SE
Cosmos 1680 Rocket 3.8 18:17:20 10° NNW 18:22:23 45° ENE 18:26:36 14° SE
SKYMED 3 4.5 18:20:55 10° NNE 18:25:18 77° ESE 18:29:39 10° S
SAR-Lupe-4 3.9 18:31:27 42° E 18:31:35 42° E 18:34:59 10° S
Meteor 2-10 Rocket 3.8 18:26:27 10° NNW 18:32:03 76° W 18:37:21 10° S
CZ-2D R/B 3.7 18:28:23 10° S 18:32:12 63° WSW 18:36:03 10° NNW
Cosmos 1818 4.0 18:27:59 10° S 18:33:03 41° ESE 18:34:52 31° ENE
H-2A R/B 3.4 18:29:28 10° N 18:33:40 40° WNW 18:37:47 10° SW
Cosmos 489 Rocket 4.4 18:27:43 10° NNW 18:34:09 83° ENE 18:40:30 10° SSE
Cosmos 2297 Rocket 4.4 18:31:17 10° WNW 18:34:42 16° NNW 18:38:08 10° N
YAOGAN 1 2.4 18:32:16 10° SSE 18:36:35 76° ENE 18:40:56 10° NNW
Cosmos 1892 Rocket 3.7 18:33:34 10° SSW 18:37:55 73° WNW 18:42:16 10° N
CSL-04 Rocket 3.7 18:35:16 10° SE 18:40:33 57° ENE 18:45:57 10° N
Helios 1A Rocket 2.8 18:37:22 10° SSE 18:41:30 70° ENE 18:45:39 10° N
APEX 4.5 18:35:30 10° SSW 18:42:28 70° ESE 18:46:31 23° NE
SAR-Lupe-1 4.1 18:42:35 55° ESE 18:42:35 55° ESE 18:46:00 10° S
Aureole 1 4.1 18:40:30 10° NNW 18:43:37 82° WSW 18:44:09 57° SSE
USA 234 3.4 18:40:20 29° E 18:43:45 62° NNE 18:50:12 10° WNW
RESURS DK-1 4.3 18:41:20 10° WSW 18:44:50 26° NW 18:47:47 13° N
Iridium 4 Rocket 3.8 18:39:38 10° N 18:45:16 50° E 18:50:29 10° SSE
ATLAS 5 CENTAUR R/B 2.3 18:41:18 10° WSW 18:45:20 47° NW 18:47:37 26° NNE
MOS 1 Rocket 3.0 18:41:09 10° NNE 18:45:32 89° W 18:49:48 10° SSW
Meteor 2-1 Rocket 4.1 18:40:48 10° NNW 18:46:27 87° WSW 18:51:58 10° S
Cosmos 1092 Rocket 4.0 18:40:45 10° SSE 18:46:42 51° E 18:52:38 10° NNE
Cosmos 1812 Rocket 3.6 18:43:58 10° N 18:48:18 52° ENE 18:48:54 48° ESE
SKYMED 2 3.9 18:45:01 10° N 18:49:20 65° WNW 18:53:37 10° SSW
Cosmos 2344 4.2 18:42:43 10° NW 18:51:24 67° NE 18:59:36 22° ESE
SJ 16-02 1.2 18:50:56 10° SSW 18:55:18 68° ESE 18:55:59 57° ENE
SJ-11-01 4.2 18:51:03 10° SSE 18:55:45 86° WSW 19:00:28 10° NNW
Aureole 3 3.3 18:52:27 10° NNW 18:56:08 64° W 18:59:14 10° S
Cosmos 2112 Rocket 3.9 18:54:41 10° NNW 18:59:58 73° ENE 19:02:18 33° SE
Cosmos 1455 2.7 18:56:38 10° NNW 19:00:23 58° W 19:04:09 10° S
CZ-4C R/B 3.5 18:58:15 10° W 19:03:20 34° NNW 19:06:29 22° NNE
Nadezhda 4 Rocket 4.0 18:57:47 10° SSW 19:04:03 81° W 19:10:18 10° N
Cosmos 2263 Rocket 3.6 19:01:03 10° WSW 19:06:12 34° NW 19:10:38 13° NNE
X-37B 3.2 19:04:37 10° SSW 19:05:31 14° SSW 19:05:31 14° SSW
COSMOS 2406 3.3 19:08:59 10° NNW 19:14:41 55° NE 19:14:49 55° ENE
ERS-2 3.1 19:16:37 39° NNW 19:17:20 46° WNW 19:20:50 10° SW
ARGOS 3.3 19:13:56 10° S 19:19:17 73° WSW 19:24:41 10° NNW
ISS -1.6 19:16:35 10° SW 19:17:58 21° SSW 19:17:58 21° SSW
Lacrosse 5 3.0 19:17:19 10° WNW 19:22:01 39° SW 19:24:15 25° S
CZ-2C R/B 3.0 19:27:19 50° SSE 19:27:19 50° SSE 19:31:37 10° S
Cosmos 1626 Rocket 4.0 19:26:19 10° SSW 19:30:39 60° WNW 19:31:13 54° NW
NOSS 3-1 (C) 4.0 19:23:27 10° NW 19:30:46 85° SW 19:34:39 36° SE
CZ-4 R/B 3.6 19:30:12 10° SSW 19:33:40 26° W 19:37:04 10° NW
COSMOS 2455 3.3 19:29:07 10° SW 19:35:03 57° NW 19:37:13 37° NNE
Cosmos 1553 Rocket 3.9 19:29:06 10° N 19:35:33 73° ENE 19:36:14 67° ESE
Cosmos 1833 Rocket 2.9 19:31:46 10° NNW 19:36:24 56° N 19:36:24 56° N
Cosmos 1844 3.7 19:32:36 10° SW 19:38:17 79° WNW 19:39:07 65° N
Cosmos 2082 Rocket 3.2 19:34:05 10° NNW 19:37:48 34° N 19:37:48 34° N
Cosmos 2026 Rocket 3.9 19:34:57 10° S 19:41:05 87° WNW 19:47:21 10° N
USA 281 3.8 19:43:33 40° NNE 19:43:33 40° NNE 19:48:28 10° NNW
SL-08 RB Rocket 4.3 19:43:21 55° WNW 19:43:21 55° WNW 19:47:22 10° NNW
Ariane Rocket 4.5 19:50:14 27° N 19:50:14 27° N 19:52:29 10° NNW
USA 229 DEB 3.8 19:40:31 10° NW 19:47:48 87° SW 19:49:18 62° SE
USA 229 3.8 19:40:38 10° NW 19:47:54 87° SW 19:49:21 62° SE
USA 267 3.9 19:51:34 40° S 19:51:34 40° S 19:56:20 10° SSW
H-2A R/B 4.0 19:54:16 10° SSW 19:58:25 26° W 20:02:41 10° NW
Cosmos 1844 Rocket 3.4 19:54:46 10° SW 20:00:16 49° NW 20:01:07 45° NNW
NOSS 3-1 (A) 3.9 19:56:01 10° NW 20:03:21 84° SW 20:04:26 70° SSE
ATLAS 2AS CENTAUR R/B 4.0 20:04:36 10° WNW 20:11:36 33° N 20:12:56 31° NNE
USA 234 3.5 20:27:40 64° W 20:27:40 64° W 20:33:18 10° WNW
ATLAS 5 CENTAUR R/B 4.2 20:27:32 10° WNW 20:29:10 17° NW 20:29:10 17° NW
SJ 16-02 4.0 20:31:06 10° W 20:33:01 17° WNW 20:33:01 17° WNW
CZ-4C R/B 4.2 20:48:16 10° NW 20:51:41 25° NNW 20:51:41 25° NNW
